| time (UTC) | temp F | wind direction | speed knots | gust knots | rain 1hr in | rain 24hr in | rain mn in | humidity % | barometer mb |
| 20260505163107 | 63 | 355 | 7.8 | 12.2 | 0.00 | 0.20 | 0.20 | 75 | 1009.6 |
| 20260505161616 | 63 | 325 | 3.5 | 9.6 | 0.00 | 0.20 | 0.20 | 77 | 1009.6 |
| 20260505153110 | 61 | 5 | 2.6 | 7.8 | 0.00 | 0.20 | 0.20 | 82 | 1009.6 |
| 20260505151558 | 61 | 331 | 3.5 | 7.0 | 0.00 | 0.20 | 0.20 | 83 | 1009.6 |
| 20260505130113 | 57 | 312 | 1.7 | 7.8 | 0.01 | 0.19 | 0.19 | 91 | 1008.8 |
| 20260505124605 | 57 | 293 | 3.5 | 7.8 | 0.01 | 0.19 | 0.19 | 93 | 1009.0 |
| 20260505123101 | 56 | 325 | 3.5 | 8.7 | 0.01 | 0.19 | 0.19 | 94 | 1009.2 |
| 20260505121559 | 56 | 285 | 0.9 | 5.2 | 0.02 | 0.19 | 0.19 | 95 | 1008.8 |
| 20260505120116 | 56 | 0 | 0.0 | 4.3 | 0.02 | 0.18 | 0.18 | 95 | 1009.1 |
| 20260505114601 | 56 | 0 | 2.6 | 5.2 | 0.03 | 0.18 | 0.18 | 95 | 1009.5 |
| 20260505113105 | 56 | 360 | 1.7 | 5.2 | 0.04 | 0.18 | 0.18 | 96 | 1009.3 |
| 20260505111558 | 56 | 331 | 2.6 | 6.1 | 0.04 | 0.17 | 0.17 | 96 | 1009.2 |
| 20260505110116 | 56 | 308 | 1.7 | 7.8 | 0.05 | 0.16 | 0.16 | 95 | 1009.1 |
| 20260505101603 | 56 | 0 | 0.0 | 1.7 | 0.08 | 0.13 | 0.13 | 94 | 1009.5 |
| 20260505100059 | 57 | 296 | 0.0 | 1.7 | 0.09 | 0.11 | 0.11 | 93 | 1009.9 |
| 20260505094600 | 57 | 132 | 0.0 | 4.3 | 0.10 | 0.10 | 0.10 | 93 | 1010.2 |
| 20260505093108 | 57 | 147 | 0.0 | 6.1 | 0.08 | 0.08 | 0.08 | 91 | 1010.4 |
| 20260505091600 | 58 | 0 | 0.0 | 5.2 | 0.05 | 0.05 | 0.05 | 87 | 1010.3 |
| 20260505090057 | 62 | 76 | 2.6 | 13.0 | 0.02 | 0.02 | 0.02 | 77 | 1009.9 |
| 20260505084559 | 65 | 85 | 1.7 | 10.4 | 0.00 | 0.00 | 0.00 | 59 | 1008.9 |
| 20260505083058 | 66 | 38 | 3.5 | 14.8 | 0.00 | 0.00 | 0.00 | 59 | 1007.8 |
| 20260505081618 | 66 | 33 | 5.2 | 12.2 | 0.00 | 0.00 | 0.00 | 58 | 1007.3 |
| 20260505080109 | 66 | 350 | 4.3 | 15.6 | 0.00 | 0.00 | 0.00 | 58 | 1006.8 |
| 20260505074557 | 66 | 355 | 8.7 | 14.8 | 0.00 | 0.00 | 0.00 | 58 | 1006.7 |
| 20260505073058 | 66 | 338 | 7.0 | 17.4 | 0.00 | 0.00 | 0.00 | 58 | 1006.9 |
| 20260505071624 | 66 | 352 | 6.1 | 15.6 | 0.00 | 0.00 | 0.00 | 58 | 1006.8 |
| 20260505070111 | 66 | 337 | 6.1 | 10.4 | 0.00 | 0.00 | 0.00 | 58 | 1006.7 |
| 20260505064609 | 66 | 5 | 7.8 | 12.2 | 0.00 | 0.00 | 0.00 | 58 | 1006.8 |
| 20260505063058 | 66 | 335 | 7.8 | 13.0 | 0.00 | 0.00 | 0.00 | 58 | 1006.9 |
| 20260505061602 | 66 | 360 | 6.1 | 10.4 | 0.00 | 0.00 | 0.00 | 58 | 1007.0 |
| 20260505060059 | 66 | 352 | 6.1 | 15.6 | 0.00 | 0.00 | 0.00 | 57 | 1007.1 |
| 20260505054558 | 66 | 348 | 5.2 | 11.3 | 0.00 | 0.00 | 0.00 | 57 | 1006.9 |
| 20260505053106 | 66 | 347 | 7.0 | 12.2 | 0.00 | 0.00 | 0.00 | 57 | 1006.7 |
| 20260505051559 | 67 | 335 | 6.1 | 10.4 | 0.00 | 0.00 | 0.00 | 56 | 1006.6 |
| 20260505041557 | 68 | 329 | 6.1 | 13.9 | 0.00 | 0.00 | 0.00 | 55 | 1006.8 |
| 20260505040106 | 68 | 355 | 6.1 | 10.4 | 0.00 | 0.00 | 0.00 | 55 | 1007.0 |
| 20260505034601 | 68 | 15 | 7.0 | 13.9 | 0.00 | 0.00 | 0.00 | 56 | 1007.1 |
| 20260505033101 | 68 | 350 | 5.2 | 11.3 | 0.00 | 0.00 | 0.00 | 56 | 1007.3 |
| 20260505031601 | 67 | 345 | 6.1 | 10.4 | 0.00 | 0.00 | 0.00 | 57 | 1007.2 |
| 20260505030103 | 67 | 5 | 3.5 | 7.8 | 0.00 | 0.00 | 0.00 | 58 | 1007.0 |
| 20260505024558 | 67 | 333 | 4.3 | 7.8 | 0.00 | 0.00 | 0.00 | 58 | 1006.8 |
| 20260505023108 | 67 | 12 | 2.6 | 7.8 | 0.00 | 0.00 | 0.00 | 58 | 1006.7 |
| 20260505021602 | 68 | 352 | 3.5 | 8.7 | 0.00 | 0.00 | 0.00 | 56 | 1006.6 |
| 20260505014600 | 69 | 360 | 3.5 | 9.6 | 0.00 | 0.00 | 0.00 | 55 | 1005.9 |
| 20260505013059 | 69 | 355 | 3.5 | 7.8 | 0.00 | 0.00 | 0.00 | 54 | 1005.6 |
| 20260505011557 | 69 | 360 | 2.6 | 7.8 | 0.00 | 0.00 | 0.00 | 54 | 1005.5 |
| 20260505010105 | 70 | 315 | 3.5 | 7.0 | 0.00 | 0.00 | 0.00 | 53 | 1005.6 |
| 20260505004557 | 70 | 5 | 2.6 | 7.0 | 0.00 | 0.00 | 0.00 | 52 | 1005.7 |
| 20260505003105 | 71 | 44 | 2.6 | 7.8 | 0.00 | 0.00 | 0.00 | 51 | 1005.7 |
| 20260505001559 | 72 | 5 | 3.5 | 8.7 | 0.00 | 0.00 | 0.00 | 49 | 1005.7 |
| 20260505000111 | 73 | 344 | 6.1 | 12.2 | 0.00 | 0.00 | 0.00 | 48 | 1005.8 |
| 20260504234558 | 73 | 13 | 7.8 | 14.8 | 0.00 | 0.00 | 0.00 | 46 | 1006.2 |
| 20260504233106 | 73 | 360 | 6.1 | 14.8 | 0.00 | 0.00 | 0.00 | 47 | 1006.4 |
| 20260504231559 | 74 | 332 | 6.1 | 13.9 | 0.00 | 0.00 | 0.00 | 48 | 1006.5 |
| 20260504230059 | 74 | 325 | 5.2 | 12.2 | 0.00 | 0.00 | 0.00 | 50 | 1006.8 |
| 20260504224602 | 74 | 29 | 7.0 | 14.8 | 0.00 | 0.00 | 0.00 | 48 | 1006.8 |
| 20260504223059 | 74 | 360 | 7.0 | 17.4 | 0.00 | 0.00 | 0.00 | 48 | 1006.9 |
| 20260504221558 | 74 | 360 | 7.8 | 15.6 | 0.00 | 0.00 | 0.00 | 47 | 1007.1 |
| 20260504220118 | 74 | 346 | 10.4 | 19.1 | 0.00 | 0.00 | 0.00 | 45 | 1007.1 |
| 20260504214559 | 75 | 338 | 10.4 | 22.6 | 0.00 | 0.00 | 0.00 | 43 | 1007.1 |
| 20260504213101 | 75 | 34 | 6.1 | 19.1 | 0.00 | 0.00 | 0.00 | 42 | 1007.1 |
| 20260504211603 | 75 | 100 | 7.8 | 20.9 | 0.00 | 0.00 | 0.00 | 40 | 1007.1 |
| 20260504210058 | 75 | 350 | 8.7 | 17.4 | 0.00 | 0.00 | 0.00 | 44 | 1007.4 |
| 20260504204556 | 75 | 24 | 7.8 | 13.9 | 0.00 | 0.00 | 0.00 | 47 | 1007.3 |
| 20260504203058 | 75 | 304 | 5.2 | 14.8 | 0.00 | 0.00 | 0.00 | 48 | 1007.5 |
| 20260504201559 | 75 | 355 | 7.8 | 11.3 | 0.00 | 0.00 | 0.00 | 46 | 1007.7 |
| 20260504200100 | 74 | 341 | 7.8 | 13.0 | 0.00 | 0.00 | 0.00 | 49 | 1007.8 |
| 20260504194559 | 74 | 335 | 2.6 | 7.0 | 0.00 | 0.00 | 0.00 | 51 | 1008.0 |
| 20260504193100 | 73 | 355 | 3.5 | 7.8 | 0.00 | 0.00 | 0.00 | 52 | 1008.3 |
| 20260504191601 | 73 | 71 | 2.6 | 9.6 | 0.00 | 0.00 | 0.00 | 52 | 1008.7 |
| 20260504190111 | 73 | 24 | 8.7 | 15.6 | 0.00 | 0.00 | 0.00 | 52 | 1008.9 |
| 20260504184614 | 72 | 46 | 2.6 | 8.7 | 0.00 | 0.00 | 0.00 | 57 | 1009.1 |
| 20260504183101 | 72 | 355 | 6.1 | 13.9 | 0.00 | 0.00 | 0.00 | 56 | 1009.0 |
| 20260504181559 | 71 | 336 | 3.5 | 9.6 | 0.00 | 0.00 | 0.00 | 60 | 1009.0 |
| 20260504180058 | 69 | 43 | 5.2 | 10.4 | 0.00 | 0.00 | 0.00 | 61 | 1009.0 |
| 20260504174609 | 68 | 339 | 3.5 | 12.2 | 0.00 | 0.00 | 0.00 | 63 | 1009.0 |
| 20260504173106 | 67 | 23 | 7.0 | 14.8 | 0.00 | 0.00 | 0.00 | 62 | 1009.0 |
| 20260504171557 | 67 | 334 | 7.8 | 17.4 | 0.00 | 0.00 | 0.00 | 62 | 1009.1 |
| 20260504170109 | 67 | 334 | 7.0 | 20.9 | 0.00 | 0.00 | 0.00 | 62 | 1009.0 |